Terminal Aerodrome Forecast
Issued by NWS Quad Cities IA IL

Home | Current Version | Previous Version | Text Only | Print | Product List | Glossary On
Versions: 1 2 3 4 5 6 7 8 9 10 11 12 13 14 15 16 17 18 19 20 21 22 23 24 25 26
548
FTUS43 KDVN 241728 CCA
TAFMLI
TAF COR
KMLI 241728Z 2418/2518 34012KT 1SM BR OVC007
     FM250000 30012G20KT 2SM -SN BR OVC008
     FM250800 30015G25KT 5SM -SN BR OVC015
     FM251200 31015G28KT 6SM BR OVC020=

USA.gov is the U.S. government's official web portal to all federal, state and local government web resources and services.